| time (UTC) | temp F | wind direction | speed MPH | gust MPH | rain 1hr in | rain 24hr in | rain mn in | humidity % | barometer mb |
| 20260901043035 | 75 | 0 | 0.0 | 4.0 | 0.00 | 0.20 | 0.20 | 89 | 1012.9 |
| 20260901041538 | 75 | 200 | 0.0 | 6.0 | 0.00 | 0.20 | 0.20 | 89 | 1013.1 |
| 20260901040037 | 76 | 231 | 1.0 | 7.0 | 0.00 | 0.20 | 0.20 | 88 | 1013.0 |
| 20260901034541 | 76 | 244 | 1.0 | 5.0 | 0.00 | 0.20 | 0.20 | 88 | 1013.1 |
| 20260901033102 | 77 | 0 | 1.0 | 5.0 | 0.00 | 0.20 | 0.20 | 87 | 1013.1 |
| 20260901031542 | 77 | 196 | 0.0 | 4.0 | 0.00 | 0.20 | 0.20 | 87 | 1013.0 |
| 20260901030039 | 77 | 238 | 2.0 | 6.0 | 0.00 | 0.20 | 0.20 | 87 | 1013.0 |
| 20260901024542 | 77 | 0 | 1.0 | 9.0 | 0.00 | 0.20 | 0.20 | 87 | 1013.1 |
| 20260901023049 | 77 | 0 | 1.0 | 5.0 | 0.00 | 0.20 | 0.20 | 87 | 1013.1 |
| 20260901021546 | 77 | 176 | 1.0 | 8.0 | 0.00 | 0.20 | 0.20 | 86 | 1013.2 |
| 20260901020042 | 78 | 197 | 1.0 | 7.0 | 0.00 | 0.20 | 0.20 | 86 | 1013.3 |
| 20260901014541 | 78 | 173 | 1.0 | 6.0 | 0.00 | 0.20 | 0.20 | 86 | 1013.2 |
| 20260901013043 | 78 | 245 | 0.0 | 6.0 | 0.00 | 0.20 | 0.20 | 86 | 1013.1 |
| 20260901011540 | 78 | 183 | 2.0 | 7.0 | 0.00 | 0.20 | 0.20 | 85 | 1012.8 |
| 20260901010038 | 79 | 207 | 1.0 | 5.0 | 0.00 | 0.20 | 0.20 | 85 | 1013.2 |
| 20260901004550 | 79 | 167 | 1.0 | 6.0 | 0.00 | 0.20 | 0.20 | 84 | 1012.9 |
| 20260901003039 | 80 | 0 | 1.0 | 6.0 | 0.00 | 0.20 | 0.20 | 83 | 1012.7 |
| 20260901001549 | 81 | 202 | 1.0 | 8.0 | 0.00 | 0.20 | 0.20 | 82 | 1012.4 |
| 20260901000047 | 81 | 212 | 3.0 | 9.0 | 0.00 | 0.20 | 0.20 | 81 | 1012.1 |
| 20260831234539 | 81 | 165 | 2.0 | 9.0 | 0.00 | 0.22 | 0.20 | 81 | 1012.4 |
| 20260831233039 | 82 | 194 | 1.0 | 7.0 | 0.00 | 0.22 | 0.20 | 80 | 1012.7 |
| 20260831231541 | 82 | 175 | 2.0 | 11.0 | 0.00 | 0.22 | 0.20 | 79 | 1012.6 |
| 20260831230043 | 82 | 184 | 3.0 | 10.0 | 0.00 | 0.22 | 0.20 | 79 | 1012.3 |
| 20260831224538 | 83 | 171 | 4.0 | 10.0 | 0.00 | 0.24 | 0.20 | 80 | 1012.4 |
| 20260831223040 | 82 | 279 | 1.0 | 9.0 | 0.00 | 0.24 | 0.20 | 82 | 1012.2 |
| 20260831221540 | 81 | 151 | 3.0 | 9.0 | 0.00 | 0.24 | 0.20 | 82 | 1012.2 |
| 20260831220043 | 80 | 303 | 1.0 | 10.0 | 0.00 | 0.24 | 0.20 | 83 | 1012.2 |
| 20260831214542 | 79 | 315 | 2.0 | 8.0 | 0.00 | 0.28 | 0.20 | 82 | 1012.3 |
| 20260831213038 | 79 | 267 | 2.0 | 9.0 | 0.00 | 0.28 | 0.20 | 82 | 1011.9 |
| 20260831211543 | 79 | 219 | 2.0 | 11.0 | 0.00 | 0.28 | 0.20 | 82 | 1011.9 |
| 20260831210041 | 79 | 250 | 4.0 | 12.0 | 0.00 | 0.28 | 0.20 | 81 | 1011.5 |
| 20260831204541 | 80 | 138 | 5.0 | 11.0 | 0.00 | 0.52 | 0.20 | 75 | 1011.8 |
| 20260831203037 | 81 | 202 | 4.0 | 14.0 | 0.00 | 0.52 | 0.20 | 73 | 1012.1 |
| 20260831201540 | 83 | 190 | 5.0 | 16.0 | 0.00 | 0.52 | 0.20 | 71 | 1012.3 |
| 20260831200044 | 84 | 151 | 2.0 | 11.0 | 0.00 | 0.52 | 0.20 | 70 | 1012.3 |
| 20260831194550 | 85 | 188 | 3.0 | 10.0 | 0.00 | 0.58 | 0.20 | 66 | 1012.1 |
| 20260831193043 | 88 | 226 | 6.0 | 16.0 | 0.00 | 0.58 | 0.20 | 60 | 1012.3 |
| 20260831191540 | 88 | 205 | 5.0 | 19.0 | 0.00 | 0.58 | 0.20 | 63 | 1012.3 |
| 20260831190106 | 88 | 184 | 5.0 | 16.0 | 0.00 | 0.58 | 0.20 | 64 | 1011.9 |
| 20260831184542 | 87 | 236 | 6.0 | 19.0 | 0.00 | 0.76 | 0.20 | 62 | 1012.1 |
| 20260831183043 | 88 | 185 | 4.0 | 11.0 | 0.00 | 0.76 | 0.20 | 62 | 1012.1 |
| 20260831181546 | 87 | 132 | 4.0 | 12.0 | 0.00 | 0.76 | 0.20 | 64 | 1012.2 |
| 20260831180039 | 86 | 209 | 6.0 | 15.0 | 0.00 | 0.76 | 0.20 | 66 | 1012.4 |
| 20260831174541 | 84 | 180 | 4.0 | 13.0 | 0.00 | 0.76 | 0.20 | 70 | 1012.4 |
| 20260831173037 | 83 | 200 | 8.0 | 23.0 | 0.00 | 0.76 | 0.20 | 66 | 1012.7 |
| 20260831171539 | 83 | 227 | 7.0 | 18.0 | 0.00 | 0.76 | 0.20 | 68 | 1012.8 |
| 20260831170041 | 83 | 182 | 5.0 | 20.0 | 0.00 | 0.76 | 0.20 | 67 | 1013.0 |
| 20260831164549 | 82 | 189 | 6.0 | 21.0 | 0.00 | 0.76 | 0.20 | 68 | 1013.1 |
| 20260831163040 | 82 | 165 | 8.0 | 17.0 | 0.00 | 0.76 | 0.20 | 69 | 1013.2 |
| 20260831161540 | 80 | 184 | 8.0 | 22.0 | 0.00 | 0.76 | 0.20 | 72 | 1013.5 |
| 20260831160043 | 78 | 195 | 6.0 | 17.0 | 0.00 | 0.76 | 0.20 | 80 | 1013.6 |
| 20260831154614 | 75 | 188 | 5.0 | 16.0 | 0.00 | 0.76 | 0.20 | 84 | 1013.6 |
| 20260831153052 | 74 | 176 | 7.0 | 15.0 | 0.00 | 0.76 | 0.20 | 85 | 1013.6 |
| 20260831151545 | 74 | 182 | 5.0 | 13.0 | 0.00 | 0.76 | 0.20 | 86 | 1013.8 |
| 20260831150040 | 74 | 171 | 5.0 | 13.0 | 0.00 | 0.76 | 0.20 | 87 | 1013.8 |
| 20260831144539 | 74 | 186 | 4.0 | 13.0 | 0.00 | 0.76 | 0.20 | 88 | 1013.8 |
| 20260831143043 | 73 | 155 | 4.0 | 14.0 | 0.00 | 0.76 | 0.20 | 90 | 1013.6 |
| 20260831141538 | 72 | 187 | 7.0 | 17.0 | 0.01 | 0.76 | 0.20 | 92 | 1013.6 |
| 20260831140038 | 70 | 171 | 6.0 | 17.0 | 0.01 | 0.76 | 0.20 | 93 | 1013.7 |
| 20260831134548 | 70 | 140 | 4.0 | 12.0 | 0.02 | 0.77 | 0.20 | 93 | 1013.8 |
| 20260831133049 | 69 | 199 | 5.0 | 15.0 | 0.04 | 0.77 | 0.20 | 93 | 1013.9 |
| 20260831131548 | 69 | 156 | 5.0 | 9.0 | 0.04 | 0.76 | 0.19 | 93 | 1014.3 |
| 20260831130041 | 69 | 179 | 4.0 | 9.0 | 0.04 | 0.76 | 0.19 | 93 | 1014.2 |
| 20260831124541 | 69 | 211 | 3.0 | 10.0 | 0.04 | 0.82 | 0.18 | 93 | 1014.2 |
| 20260831123042 | 69 | 185 | 2.0 | 8.0 | 0.05 | 0.80 | 0.16 | 92 | 1014.2 |
| 20260831121543 | 69 | 178 | 2.0 | 4.0 | 0.14 | 0.79 | 0.15 | 92 | 1014.2 |
| 20260831120044 | 69 | 167 | 2.0 | 6.0 | 0.15 | 0.79 | 0.15 | 92 | 1014.3 |
| 20260831114544 | 69 | 169 | 3.0 | 6.0 | 0.14 | 0.79 | 0.14 | 92 | 1014.2 |
| 20260831113042 | 69 | 202 | 2.0 | 7.0 | 0.10 | 0.75 | 0.10 | 91 | 1014.4 |
| 20260831111544 | 69 | 244 | 2.0 | 5.0 | 0.01 | 0.66 | 0.01 | 92 | 1014.4 |
| 20260831110040 | 69 | 314 | 2.0 | 5.0 | 0.00 | 0.65 | 0.00 | 92 | 1014.4 |
| 20260831104546 | 69 | 272 | 1.0 | 6.0 | 0.00 | 0.66 | 0.00 | 92 | 1013.9 |
| 20260831103040 | 69 | 202 | 1.0 | 8.0 | 0.00 | 0.66 | 0.00 | 92 | 1013.3 |
| 20260831101545 | 69 | 225 | 2.0 | 7.0 | 0.00 | 0.66 | 0.00 | 92 | 1013.1 |
| 20260831100044 | 69 | 206 | 3.0 | 6.0 | 0.00 | 0.66 | 0.00 | 92 | 1012.8 |
| 20260831094542 | 69 | 157 | 1.0 | 6.0 | 0.00 | 0.66 | 0.00 | 92 | 1012.9 |
| 20260831093101 | 69 | 0 | 0.0 | 5.0 | 0.00 | 0.66 | 0.00 | 92 | 1013.1 |
| 20260831091547 | 69 | 163 | 2.0 | 6.0 | 0.00 | 0.66 | 0.00 | 92 | 1013.1 |
| 20260831090039 | 69 | 163 | 1.0 | 4.0 | 0.00 | 0.66 | 0.00 | 92 | 1013.3 |
| 20260831084617 | 69 | 0 | 1.0 | 4.0 | 0.00 | 0.66 | 0.00 | 91 | 1013.1 |
| 20260831083047 | 69 | 0 | 0.0 | 0.0 | 0.00 | 0.66 | 0.00 | 91 | 1013.3 |
| 20260831081539 | 70 | 0 | 0.0 | 1.0 | 0.00 | 0.66 | 0.00 | 91 | 1013.3 |
| 20260831080053 | 70 | 0 | 0.0 | 2.0 | 0.00 | 0.66 | 0.00 | 91 | 1013.4 |
| 20260831074547 | 70 | 0 | 0.0 | 1.0 | 0.00 | 0.66 | 0.00 | 91 | 1013.6 |
| 20260831073042 | 70 | 0 | 0.0 | 0.0 | 0.00 | 0.66 | 0.00 | 91 | 1013.8 |
| 20260831071544 | 70 | 0 | 0.0 | 0.0 | 0.00 | 0.66 | 0.00 | 91 | 1013.9 |
| 20260831070039 | 71 | 0 | 0.0 | 2.0 | 0.00 | 0.66 | 0.00 | 91 | 1013.8 |
| 20260831064548 | 71 | 0 | 0.0 | 5.0 | 0.00 | 0.66 | 0.00 | 91 | 1014.0 |
| 20260831063100 | 71 | 0 | 1.0 | 5.0 | 0.00 | 0.66 | 0.00 | 91 | 1013.9 |
| 20260831061540 | 71 | 163 | 2.0 | 9.0 | 0.00 | 0.66 | 0.00 | 91 | 1013.9 |
| 20260831060042 | 71 | 167 | 2.0 | 8.0 | 0.00 | 0.66 | 0.00 | 92 | 1013.9 |
| 20260831054547 | 71 | 191 | 1.0 | 5.0 | 0.00 | 0.66 | 0.00 | 92 | 1014.0 |
| 20260831053052 | 71 | 170 | 1.0 | 6.0 | 0.00 | 0.66 | 0.00 | 92 | 1013.8 |
| 20260831051542 | 71 | 164 | 1.0 | 6.0 | 0.00 | 0.66 | 0.00 | 92 | 1014.0 |
| 20260831050041 | 72 | 0 | 2.0 | 5.0 | 0.00 | 0.66 | 0.00 | 92 | 1014.0 |
| 20260831044540 | 72 | 207 | 0.0 | 3.0 | 0.00 | 0.66 | 0.66 | 92 | 1013.9 |